AirNav   Everest Fuels
 
 658 users online  

1TX7 Killion Ranch Airport
Hamlin, Texas, USA

GOING TO HAMLIN?


FAA INFORMATION EFFECTIVE 21 MAY 2020

Location

FAA Identifier: 1TX7
Lat/Long: 32-48-20.3940N 100-11-01.3690W
32-48.339900N 100-11.022817W
32.8056650,-100.1837136
(estimated)
Elevation: 1845 ft. / 562 m (estimated)
Variation: 08E (1985)
From city: 5 miles SW of HAMLIN, TX
Time zone: UTC -5 (UTC -6 during Standard Time)
Zip code: 79520

Airport Operations

Airport use: Private use. Permission required prior to landing
Activation date: 12/1970
Control tower: no
ARTCC: FORT WORTH CENTER
FSS: FORT WORTH FLIGHT SERVICE STATION
Attendance: CONTINUOUS
Wind indicator: yes
Segmented circle: no

Nearby radio navigation aids

VOR radial/distance  VOR name  Freq  Var
ABIr310/25.3ABILENE VORTAC113.7010E
TQAr322/38.9TUSCOLA VOR/DME111.6010E

 
NDB name  Hdg/Dist  Freq  Var  ID
SNYDER073/39.035908ESDR ... -.. .-.

Airport Services

Airframe service: NONE
Powerplant service: NONE

Runway Information

Runway 17/35

Dimensions: 2300 x 50 ft. / 701 x 15 m
Surface: treated
RUNWAY 17  RUNWAY 35
Traffic pattern: leftleft

Airport Ownership and Management from official FAA records

Ownership: Privately-owned
Owner: A E KILLION
BOX 187 - 503 FM 57
HAMLIN, TX 79520
Phone 915-576-2313
Manager: A E KILLION
BOX 187 - 503 FM 57
HAMLIN, TX 79520
Phone 915-576-2313

Additional Remarks

FOR CD CTC FORT WORTH ARTCC AT 817-858-7584.

Instrument Procedures

There are no published instrument procedures at 1TX7.

Some nearby airports with instrument procedures:

F56 - Arledge Field Airport (24 nm E)
KSWW - Avenger Field Airport (25 nm SW)
KDYS - Dyess Air Force Base (29 nm SE)
15F - Haskell Municipal Airport (33 nm NE)
KABI - Abilene Regional Airport (35 nm SE)
 
Loc | Ops | Rwys | IFR | FBO | Links
Com | Nav | Svcs | Stats | Notes
Area around 1TX7 (Killion Ranch Airport)
 
Road maps at: MapQuest Bing Google
 
Aerial photo
No photo
 
Sectional chart

 
Airport distance calculator
Flying to Killion Ranch Airport? Find the distance to fly.

From to 1TX7

Sunrise and sunset
Times for 31-May-2020
 Local
(UTC-5)
 Zulu
(UTC)
Morning civil twilight06:0611:06
Sunrise06:3411:34
Sunset20:4301:43
Evening civil twilight21:1102:11

Current date and time
Zulu (UTC)  31-May-2020 11:49:39
Local (UTC-5)  31-May-2020 06:49:39
 
METAR
KSWW 
25nm SW 
311135Z AUTO 00000KT 10SM CLR 17/12 A3021 RMK AO2 T01700117
KDYS 
29nm SE 
311056Z AUTO 00000KT 10SM CLR 16/11 A3014 RMK AO2 SLP169 T01590111
KABI 
34nm SE 
311052Z 14004KT 9SM CLR 17/12 A3016 RMK AO2 SLP189 T01670122
KSNK 
39nm W 
311135Z AUTO 08004KT 10SM CLR 17/11 A3019 RMK AO2 T01670113
TAF
KDYS 
29nm SE 
310800Z 3108/0114 VRB06KT 9999 SKC QNH3005INS BECMG 3113/3114 16009KT 9999 FEW030 SCT050 QNH3003INS BECMG 0113/0114 16009KT 9999 SCT050 BKN060 QNH3000INS TX31/3120Z TN16/3112Z
KABI 
34nm SE 
310534Z 3106/0106 13007KT P6SM FEW250 FM311600 15009KT P6SM SCT120
NOTAMs
Click for the latest NOTAMs
NOTAMs are issued by the DoD/FAA and will open in a separate window not controlled by AirNav.

 

 
 

Would you like to see your business listed on this page?

 If your business provides an interesting product or service to pilots, flight crews, aircraft, or users of the Killion Ranch Airport, you should consider listing it here.  To start the listing process, click on the button below
 
Add a business
 

Other Pages about Killion Ranch Airport

Update a link
 
Copyright © AirNav, LLC. All rights reserved. Privacy Policy  Contact